Wind_Gust
33 34 34 35 32 33 33 34 32 33 30 32 32 32 30 30 34 30 29 31 30 29 27 28 28 28 27 26 26 25 25 24 24 23 23 22 22 20 20 21 22 21 21 20 20 20 21 22 22 21 20 22 21 21 19 18 18 17 17 17 17 16 15 15 17 15 12 10 12 13 14 13 16 16 17 15 18 18 14 12 12 12 13 15 17
34 33 33 33 32 33 31 31 33 32 32 34 32 32 32 35 31 28 28 30 30 31 30 29 28 28 26 27 26 27 26 26 25 24 24 23 23 22 21 21 22 21 21 22 22 22 21 24 24 24 25 22 18 19 20 20 19 20 20 18 17 16 15 18 18 16 16 14 13 15 17 15 18 16 15 11 11 11 15 14 15 16 16 11 14
33 32 31 31 32 32 33 31 34 33 33 33 32 33 32 32 31 31 30 31 30 31 30 30 29 29 27 27 27 26 26 25 24 24 24 24 25 23 22 21 21 23 23 22 23 21 22 21 21 21 18 19 19 18 16 18 19 19 18 18 16 15 16 17 16 18 16 16 15 17 17 17 17 16 16 14 11 11 14 14 14 11 11 11 13
31 32 32 31 31 31 34 34 34 35 35 34 33 33 32 30 31 32 29 31 32 32 30 30 29 29 28 28 28 26 26 25 25 25 26 26 25 24 22 22 23 22 23 22 23 22 23 23 23 20 19 20 20 18 17 16 16 16 17 15 16 15 14 14 16 16 15 17 18 19 17 15 16 17 12 11 14 15 14 11 12 13 12 12 14
31 32 31 32 32 35 34 33 32 34 36 36 32 32 32 31 28 31 30 30 32 33 32 30 30 31 30 29 29 27 27 27 26 26 25 24 25 24 23 22 22 23 22 23 17 22 22 22 22 20 20 20 19 19 18 16 17 16 16 16 17 16 15 15 16 15 15 16 15 16 14 15 15 15 15 17 17 16 15 14 12 13 12 11 15
32 32 32 33 34 35 35 34 35 35 34 31 30 31 32 30 30 30 33 32 31 31 32 33 33 33 31 30 29 28 28 27 27 26 26 24 24 24 23 22 23 23 22 22 22 21 20 22 21 21 21 21 20 19 17 17 17 16 16 17 17 16 14 14 15 16 16 15 14 16 13 15 15 14 13 12 12 12 13 15 17 15 13 13 13
33 33 32 32 34 34 36 37 37 34 32 31 28 30 31 32 32 33 32 32 31 30 30 32 31 31 31 30 30 29 29 27 26 26 26 25 25 25 24 22 22 23 22 23 22 21 20 21 20 21 21 21 19 19 18 17 18 16 17 15 16 15 16 15 16 17 16 15 15 15 16 16 13 14 16 12 11 12 11 12 13 12 12 12 13
32 32 32 32 34 36 37 34 33 33 32 32 30 30 31 31 32 31 29 31 30 31 32 32 31 29 30 30 30 29 28 28 28 27 26 26 25 24 23 23 22 22 21 21 20 20 20 20 20 21 21 21 19 19 18 20 17 17 17 16 15 16 16 16 17 17 16 16 15 16 15 16 14 12 10 12 12 13 14 12 12 12 12 10 12
33 34 33 33 34 33 33 32 32 31 32 32 32 30 31 32 30 30 29 30 28 30 29 31 31 30 30 30 30 30 31 31 29 28 27 27 26 26 24 24 23 22 21 20 20 21 20 20 20 20 19 13 12 12 13 11 18 19 17 17 17 17 16 17 18 17 16 16 16 16 16 15 15 14 14 13 13 13 11 10 12 13 13 14 13
33 34 34 34 34 34 34 32 33 33 33 34 32 32 31 30 29 29 31 31 28 29 31 32 31 31 31 31 31 30 30 31 17 20 17 27 26 26 24 24 24 22 21 21 20 21 21 19 18 13 11 11 11 11 10 7 6 10 18 18 18 17 17 17 17 17 17 17 17 16 16 16 15 14 14 12 11 9 9 11 13 12 12 14 15
32 32 34 33 33 33 35 33 33 33 34 33 29 31 32 31 30 32 31 28 27 28 30 32 31 31 32 32 32 31 31 27 18 19 20 16 23 24 24 23 22 23 21 21 21 22 21 20 18 15 15 11 15 11 10 9 9 10 11 9 8 10 18 17 15 15 17 17 16 16 15 14 13 13 13 13 12 11 10 10 12 13 14 13 14
33 33 33 33 33 34 34 33 32 34 34 35 33 33 30 29 32 31 31 29 26 27 29 31 31 30 31 32 32 30 30 16 22 21 18 16 14 25 23 23 23 23 22 22 22 22 21 21 19 20 21 22 20 18 13 10 9 9 9 9 9 12 10 9 13 17 15 15 16 15 14 14 13 13 13 12 12 11 11 11 12 12 14 14 14
33 33 33 32 33 33 32 32 34 34 35 35 30 31 31 32 31 31 31 28 25 28 30 29 31 31 30 31 33 31 23 20 23 24 20 18 15 18 24 22 24 22 22 22 22 22 22 22 20 20 21 16 20 22 20 17 8 7 7 6 7 7 6 7 7 12 10 15 13 14 14 13 13 14 12 11 8 10 10 13 12 12 13 15 16
33 33 32 32 33 33 33 32 33 34 34 32 30 32 31 33 29 31 27 25 29 28 27 30 30 30 32 31 31 30 23 22 24 24 22 22 19 16 25 25 23 22 22 23 22 22 22 23 22 22 21 23 22 23 22 21 19 17 15 14 15 11 5 3 5 6 9 11 11 13 12 10 11 10 11 10 11 11 12 12 11 13 14 15 15
35 32 32 32 32 32 33 34 34 34 33 32 31 33 32 31 30 28 29 30 31 30 29 30 31 29 30 30 30 33 22 26 26 26 24 23 21 14 25 23 22 22 21 21 22 21 22 23 21 22 23 24 24 23 23 23 22 20 19 17 17 18 17 15 15 14 14 12 10 10 9 11 10 8 11 11 11 11 10 12 12 14 16 17 20
36 32 32 33 33 33 34 33 32 32 33 32 32 34 34 34 32 26 24 28 28 27 27 30 30 31 31 31 29 32 21 29 27 27 26 23 23 23 24 24 23 22 22 21 22 22 22 22 22 22 22 24 17 17 17 23 22 21 20 18 18 17 18 8 7 9 12 11 9 12 14 15 11 13 12 10 12 11 10 13 15 16 19 19 19
35 33 34 35 34 33 33 34 34 34 35 35 36 36 32 32 29 27 27 30 30 29 31 32 31 32 32 32 31 31 22 26 27 26 25 24 20 26 25 26 24 23 22 21 22 21 22 23 22 23 22 23 18 17 15 16 21 22 20 19 18 17 19 16 10 10 11 11 11 10 9 9 10 10 10 11 11 10 11 14 15 16 18 19 17
35 35 35 34 35 34 34 35 35 36 38 38 39 34 33 32 36 30 34 34 34 35 31 31 31 30 31 33 34 31 22 23 27 26 26 26 22 28 25 27 27 24 23 21 21 22 21 16 16 22 22 21 21 18 18 17 20 21 20 20 19 19 18 18 18 14 9 9 8 7 6 7 7 7 7 6 4 4 14 17 15 17 18 17 19
35 35 35 34 35 35 36 36 36 36 37 37 38 37 36 37 35 33 35 32 32 29 27 30 29 29 29 29 20 28 22 25 27 27 28 27 26 24 25 27 26 25 24 23 21 21 22 16 13 15 18 20 24 19 17 18 20 19 19 19 20 19 19 19 19 20 18 17 15 13 13 10 13 14 14 11 9 8 15 17 18 20 21 19 18
35 34 33 34 33 34 34 34 35 35 35 35 36 38 33 31 35 33 31 31 30 29 28 28 27 25 25 27 24 29 23 24 27 29 29 28 26 25 24 30 28 25 23 24 24 22 21 22 19 10 15 24 22 20 18 17 20 18 19 20 19 18 17 18 18 19 19 20 18 18 18 18 19 18 17 17 16 16 17 18 20 21 21 20 19
37 34 32 33 33 34 32 33 34 34 33 35 34 32 32 34 31 27 27 27 25 26 27 27 27 26 25 27 27 28 23 25 26 29 29 30 29 21 25 24 25 25 25 23 24 24 23 23 24 17 20 22 22 21 18 19 14 18 19 19 17 11 12 17 18 10 18 18 18 18 19 19 19 19 19 20 20 20 20 19 20 21 22 21 21
34 35 32 31 33 33 32 31 33 32 31 32 32 31 30 31 31 30 30 29 27 24 22 27 27 28 26 26 25 29 20 24 26 28 31 31 29 24 22 23 22 25 24 23 24 22 22 24 23 20 22 22 19 20 19 18 18 18 19 10 13 8 14 15 17 20 20 19 20 20 20 20 20 20 20 20 20 20 20 20 20 22 22 21 21
35 34 31 30 30 31 29 28 31 32 34 36 35 37 38 36 33 33 32 29 29 27 27 29 27 28 26 26 24 25 18 22 26 26 28 31 32 26 19 18 13 21 24 23 22 22 19 19 19 23 20 20 18 18 17 19 15 18 9 11 10 7 6 17 16 18 20 20 20 20 20 20 19 19 19 19 19 18 19 19 18 20 20 20 20
32 30 26 27 30 30 29 30 32 31 33 35 36 36 35 35 33 33 33 33 32 31 29 28 28 27 27 25 24 20 15 18 20 26 27 28 30 28 24 14 16 19 20 20 21 20 21 19 21 25 22 23 23 21 20 18 18 16 9 7 9 7 17 18 18 17 17 19 20 20 20 19 19 19 18 17 17 16 17 17 18 18 18 19 20
29 27 26 26 28 28 28 29 29 29 27 30 31 31 29 30 32 30 29 31 31 29 27 27 27 26 26 25 25 21 17 17 17 21 25 27 28 27 22 14 13 13 17 16 14 15 13 20 26 26 25 22 23 21 16 18 17 13 12 10 9 17 19 20 20 19 19 20 20 21 21 19 19 18 16 14 13 13 13 13 15 17 18 19 20
28 28 27 27 28 29 28 27 27 26 26 26 27 26 28 29 29 27 24 24 22 24 25 25 26 24 25 24 23 23 19 19 18 18 19 21 21 23 17 15 13 11 11 17 16 21 22 22 24 24 23 21 21 19 19 19 14 9 10 11 19 21 20 22 21 22 21 21 20 20 19 18 20 19 16 16 16 17 16 19 19 20 21 22 22
27 26 28 29 27 26 25 26 26 26 26 25 25 20 18 20 23 18 20 21 19 21 22 23 24 24 25 22 20 21 21 20 19 19 21 21 22 20 19 18 13 11 16 21 14 17 19 18 18 15 14 19 17 13 13 14 18 16 18 20 21 21 21 22 22 22 20 20 20 20 19 19 18 17 18 18 18 18 18 19 20 20 20 20 20
21 19 22 22 24 25 23 12 20 24 22 18 19 18 19 21 24 24 26 27 27 25 24 24 26 27 28 26 22 20 20 21 24 28 24 22 24 26 25 23 23 24 26 25 25 21 20 12 17 19 19 19 20 20 21 20 21 21 22 22 23 22 18 12 12 20 20 20 19 18 18 18 19 18 17 18 19 18 18 20 20 20 19 19 21
18 17 17 17 19 17 19 20 22 20 20 19 20 22 24 25 25 25 28 31 33 31 29 27 27 29 30 32 29 26 21 23 29 21 32 27 34 29 29 28 26 26 20 16 22 22 22 21 20 22 21 21 20 22 23 24 22 23 23 23 24 24 23 23 25 23 22 20 21 19 19 18 18 17 18 19 18 18 18 19 18 19 19 19 21
12 13 14 15 15 14 15 16 18 17 18 21 20 19 10 13 17 29 30 18 15 18 14 27 29 28 28 31 30 30 30 30 19 26 25 28 27 27 23 20 19 21 17 21 18 24 22 22 23 23 24 24 24 24 25 25 23 23 24 17 24 24 25 25 24 24 22 21 20 19 19 18 18 18 19 19 18 19 19 14 18 18 19 20 21
18 16 15 16 16 13 15 15 16 17 19 19 19 18 19 10 13 15 13 10 13 14 13 9 8 8 17 22 19 16 15 22 31 30 25 26 25 25 27 26 24 21 22 24 23 21 19 20 22 25 24 25 24 25 23 22 19 20 23 25 26 25 22 25 25 20 20 18 20 21 20 20 20 19 19 18 18 18 17 18 19 19 20 20 21
17 15 14 13 12 11 12 13 12 14 13 14 15 16 17 17 9 12 14 12 13 13 13 14 13 12 13 18 16 17 16 20 24 28 29 29 28 27 26 23 24 24 24 21 21 21 22 22 22 25 25 24 23 23 25 25 24 24 24 22 25 25 26 23 23 23 23 23 19 18 19 19 19 19 18 17 15 17 17 17 17 18 19 20 21
15 16 16 13 10 10 12 11 10 11 12 13 15 18 19 16 17 12 12 14 12 15 15 13 14 15 17 20 23 18 18 22 28 29 29 29 28 27 27 26 26 24 24 22 20 21 23 25 26 26 26 24 26 27 27 24 24 24 24 25 22 26 26 24 19 24 21 23 20 19 19 19 18 18 13 16 16 15 16 16 17 18 18 20 18
13 14 14 15 14 13 10 12 14 15 14 15 17 17 16 16 19 17 15 13 14 13 10 12 17 16 16 19 18 17 19 23 25 29 28 27 26 23 23 25 21 26 29 26 23 21 25 26 26 27 27 26 25 24 25 25 24 25 24 24 24 24 24 24 25 25 23 22 23 18 18 20 20 19 19 19 20 19 16 17 19 17 17 19 17
14 12 8 8 12 12 12 11 12 15 16 18 19 20 18 15 13 18 19 18 16 17 17 11 8 15 18 15 17 20 21 22 24 25 25 25 25 23 21 23 20 19 23 24 25 26 26 26 26 26 25 26 26 25 26 25 25 23 23 23 23 23 23 24 24 24 25 24 24 22 20 19 22 20 19 19 19 18 18 17 19 19 19 18 18
18 18 15 12 12 11 10 9 10 13 15 17 18 19 15 14 15 17 15 16 18 19 16 17 16 7 15 17 18 19 20 21 22 22 23 26 27 28 29 25 25 26 28 31 30 28 27 27 26 25 25 25 25 25 25 24 23 24 23 24 22 23 24 24 23 23 24 25 22 20 20 22 21 19 21 21 23 22 19 19 18 16 17 18 16
21 20 18 17 16 14 12 11 12 13 8 10 12 14 13 14 16 18 18 20 19 18 21 19 17 14 9 9 11 13 17 19 20 23 26 27 30 29 26 28 29 29 29 29 28 28 30 28 26 25 25 24 24 24 23 24 24 25 19 26 26 26 26 26 24 21 22 22 21 24 22 21 21 21 20 20 19 20 21 20 18 15 14 12 11
20 22 21 20 17 16 15 14 15 8 10 11 12 14 14 16 17 16 16 19 20 21 21 21 14 20 21 17 13 13 18 17 20 17 18 21 27 25 24 24 27 28 27 27 28 27 27 27 25 25 25 23 22 21 23 26 26 26 27 26 27 27 13 19 17 26 18 19 20 20 19 19 20 19 18 21 20 20 20 18 19 18 16 14 16
16 12 17 16 9 18 16 14 13 12 10 9 10 12 12 14 16 17 18 17 17 17 18 22 23 20 18 20 19 19 25 22 19 19 21 21 23 24 23 25 26 27 25 25 23 23 23 24 23 22 22 22 21 22 25 26 25 27 28 27 25 25 22 21 23 20 19 20 20 20 21 20 20 21 20 20 20 19 18 17 16 18 19 18 17
20 20 15 13 16 15 14 13 13 12 10 10 9 10 10 11 14 16 17 17 18 16 15 16 16 16 18 20 19 22 22 21 20 21 21 23 23 24 26 25 25 25 25 26 26 27 24 22 21 21 22 22 23 24 26 26 26 27 27 25 25 24 21 21 21 21 21 20 20 19 20 19 20 19 19 21 21 19 19 20 18 17 18 18 17
20 19 11 10 10 15 14 16 15 15 14 12 9 8 9 10 11 9 14 13 13 14 13 11 11 12 14 18 18 16 17 19 19 20 21 22 22 23 23 23 24 25 23 22 22 23 24 24 22 23 23 24 24 24 24 24 24 24 26 22 24 20 20 22 19 19 18 18 18 19 20 19 19 20 21 20 14 17 19 19 19 19 18 17 16
20 19 20 18 17 19 17 16 16 13 12 12 14 12 9 9 10 10 10 10 7 8 11 11 12 12 13 18 16 10 10 12 14 18 19 18 18 17 17 17 16 19 18 20 21 20 19 22 22 22 22 22 22 22 22 22 24 24 23 23 21 18 20 22 19 16 16 19 17 17 17 19 18 19 19 11 18 19 20 20 18 18 18 19 18
19 19 20 19 20 19 19 18 17 17 16 15 15 10 11 11 11 11 12 10 10 10 10 11 13 13 12 9 15 10 12 14 9 17 16 14 14 14 15 12 12 14 15 17 19 15 14 19 19 19 18 19 19 18 17 17 19 20 20 17 18 18 18 20 18 17 17 17 17 14 13 15 18 19 18 17 19 18 18 17 18 18 17 17 17
22 20 19 19 20 18 18 18 17 15 15 12 13 15 15 14 13 12 13 13 12 11 11 12 12 12 11 10 8 10 11 16 14 16 15 13 13 14 14 12 11 10 11 11 10 12 13 17 14 18 18 17 19 18 19 20 22 23 21 23 19 16 17 18 17 15 18 18 17 16 17 17 17 19 17 16 16 19 19 16 17 18 20 18 18
22 22 21 21 21 20 20 19 17 15 12 11 16 17 16 19 18 15 14 13 13 12 12 11 12 11 12 13 15 13 10 10 9 9 10 10 11 11 10 10 10 12 12 13 15 13 14 17 17 13 13 18 21 20 20 18 18 20 21 21 19 20 18 16 15 14 14 13 17 17 18 19 19 20 19 18 17 17 19 18 19 13 17 18 17
24 22 22 22 22 21 19 19 14 16 17 17 17 17 16 17 17 14 12 12 11 10 11 11 10 10 9 10 10 8 10 8 11 11 11 10 10 10 11 12 13 13 14 12 13 12 13 16 14 13 12 14 17 19 19 18 19 20 19 20 21 20 19 20 19 15 15 15 17 17 18 16 16 16 14 18 19 20 19 16 15 18 18 17 17
25 24 23 22 23 23 23 22 22 19 19 17 15 17 17 15 13 12 10 13 13 10 11 10 9 9 9 11 12 12 11 12 12 11 11 10 10 11 13 13 15 14 14 14 14 15 16 15 12 15 13 16 16 16 17 17 17 19 18 18 19 20 19 17 18 18 19 19 15 15 14 15 17 18 20 22 19 19 17 19 18 14 17 18 18
25 25 24 22 22 22 22 24 25 20 24 22 22 19 16 15 15 15 13 12 13 11 10 10 10 10 9 9 8 7 7 7 7 6 7 9 11 13 13 11 11 12 12 12 13 11 10 12 15 13 11 12 10 16 16 18 18 16 17 16 17 17 15 12 18 19 18 17 15 13 13 17 17 18 18 19 19 19 17 19 18 19 17 18 18
24 25 24 24 23 23 22 22 21 21 22 22 22 23 21 22 20 19 15 14 14 14 13 10 11 12 12 11 10 9 10 9 8 7 6 7 8 10 11 11 7 8 9 8 10 10 12 12 8 11 13 13 15 17 18 15 14 16 17 16 14 13 11 12 12 17 14 15 12 15 17 17 16 14 14 15 18 19 19 14 15 16 18 17 18
22 22 24 24 24 24 23 22 22 22 21 20 20 21 21 20 21 21 20 20 18 16 14 12 12 12 12 10 8 8 9 10 11 12 11 10 9 8 7 7 8 8 8 9 11 13 13 12 13 12 13 16 17 18 17 16 16 17 16 19 13 16 14 16 14 10 15 11 13 15 18 18 17 17 17 17 16 15 16 17 15 15 16 17 17
22 22 22 23 23 23 23 24 24 24 24 23 23 22 22 21 19 19 19 20 21 20 19 20 20 18 16 15 13 12 13 13 12 11 9 9 9 9 9 9 9 9 9 8 8 7 8 8 10 10 11 8 10 8 9 12 16 17 12 10 11 13 14 13 15 9 9 8 12 14 16 17 15 16 17 18 16 16 16 16 15 16 17 17 16
Wind_Speed
16 15 15 16 18 20 19 19 18 18 15 15 15 16 15 15 17 15 14 15 16 15 15 15 16 15 14 13 13 12 13 13 12 12 12 11 10 11 11 11 10 10 10 10 10 9 9 10 11 11 11 11 10 10 10 8 7 8 7 8 8 7 7 7 7 5 4 1 5 5 6 7 7 7 7 6 8 7 7 5 5 5 5 6 6
17 17 16 15 19 19 19 16 17 17 15 15 14 16 15 17 16 15 16 16 17 17 17 15 15 15 14 15 14 14 14 15 14 12 12 11 11 10 10 10 11 11 10 10 11 9 11 13 13 13 13 12 7 8 9 9 9 9 9 8 8 7 7 8 8 7 7 5 5 6 6 5 6 7 7 5 5 4 7 6 6 7 7 5 1
17 16 16 18 19 19 17 17 18 18 18 16 17 17 14 16 16 16 16 14 16 17 16 16 16 17 15 14 14 14 14 14 12 13 12 12 12 10 9 10 11 11 12 12 13 11 11 11 11 11 9 9 9 9 9 9 9 9 9 8 8 7 8 8 7 8 7 7 6 6 6 6 7 6 8 5 4 4 5 6 5 4 4 4 4
15 16 16 17 19 19 17 17 19 19 18 16 18 19 15 16 17 18 16 13 16 17 16 17 16 17 16 15 15 13 13 12 12 12 13 13 12 12 12 11 11 12 12 12 12 11 12 13 13 12 10 11 11 9 8 8 8 8 9 8 8 7 7 7 8 7 6 7 7 6 7 6 6 8 5 4 6 6 6 3 3 4 5 4 6
17 18 18 19 18 17 16 16 17 19 19 16 18 19 17 15 15 18 16 15 16 16 16 17 16 17 15 16 15 15 14 15 14 13 11 11 12 12 12 12 11 12 12 12 11 12 12 12 12 11 11 11 10 9 9 9 8 7 8 7 7 7 6 6 7 7 4 6 6 6 5 6 6 7 6 7 7 7 7 5 5 5 4 3 3
18 18 18 18 18 19 19 18 18 20 20 18 15 15 15 15 16 16 18 17 16 16 18 17 17 18 17 16 15 15 14 15 15 14 14 12 11 11 11 12 12 11 12 13 12 12 11 12 12 11 11 11 10 10 9 10 9 8 8 8 8 7 7 6 6 6 6 6 5 6 5 6 6 6 6 5 4 4 5 7 8 7 5 4 5
19 18 18 19 18 19 19 19 18 18 18 18 14 15 17 16 17 18 17 16 16 16 17 18 16 17 17 16 16 16 16 15 14 13 14 14 13 12 12 12 12 11 12 13 12 12 11 11 11 11 11 11 11 10 10 10 9 9 9 8 8 7 7 7 7 7 7 6 6 6 6 7 6 6 7 5 4 4 4 4 5 5 5 5 4
18 18 18 18 18 19 19 18 18 17 17 18 16 15 16 15 16 16 16 16 16 17 18 18 16 16 16 16 16 15 16 15 15 13 13 13 12 12 12 11 12 12 12 12 11 11 11 11 11 11 11 11 11 10 10 10 8 9 8 8 7 8 7 7 7 7 7 7 6 6 7 7 6 5 3 5 4 5 5 4 4 3 4 3 5
18 18 18 18 18 18 18 18 18 18 18 18 17 16 16 17 17 16 14 15 12 16 16 17 17 17 17 16 16 15 16 14 12 11 11 12 11 13 13 12 12 12 12 11 11 10 10 10 10 10 10 10 10 9 9 9 8 9 8 8 8 8 8 8 8 7 7 7 7 7 7 7 6 6 6 5 6 5 4 4 3 4 5 5 5
19 19 19 19 18 19 19 17 17 18 18 19 18 17 16 15 15 16 15 16 15 13 15 16 17 17 17 18 16 13 13 11 11 17 14 12 13 12 10 11 13 12 11 10 10 10 11 10 9 11 9 7 8 7 7 4 4 4 9 9 9 8 8 8 8 8 7 8 8 7 7 7 7 7 6 6 5 4 2 3 4 5 4 5 5
18 18 19 19 19 18 17 17 17 18 18 18 15 16 18 14 14 18 17 16 14 13 15 17 17 17 18 18 17 14 12 10 15 17 18 15 13 11 10 11 12 12 11 10 10 11 10 10 8 8 10 9 8 10 8 7 8 9 10 7 4 4 9 8 7 7 8 7 7 7 7 7 6 6 6 6 5 4 3 4 4 3 4 4 4
19 18 19 19 19 19 17 18 18 17 17 19 17 17 17 14 14 15 16 17 14 12 14 17 17 15 14 17 18 14 11 11 18 18 16 13 9 12 11 11 11 12 11 11 10 10 11 10 9 8 9 10 9 8 7 7 8 8 9 9 8 10 9 2 4 7 7 7 7 7 7 6 6 6 6 5 5 5 4 4 4 4 4 4 4
19 18 19 18 18 17 18 18 18 17 18 19 17 15 18 14 13 12 16 15 12 14 15 15 14 14 14 16 17 17 11 15 19 20 17 15 13 13 12 11 12 12 11 11 11 11 11 11 10 9 9 12 10 10 9 6 6 6 6 5 6 7 6 6 6 4 4 6 6 6 6 6 6 6 6 5 4 4 4 5 5 5 4 4 5
19 19 18 18 17 18 18 17 17 16 17 17 16 15 18 14 13 13 12 12 13 16 14 16 14 15 13 13 13 14 11 15 20 20 18 18 16 13 13 13 12 12 11 11 10 11 11 11 11 10 11 12 11 12 11 10 8 6 5 5 5 3 2 3 1 4 4 4 4 5 6 5 4 5 6 4 5 4 4 5 4 4 4 4 5
21 18 18 18 18 18 18 17 17 17 18 18 18 19 17 13 13 11 12 14 17 15 12 14 13 13 13 12 14 14 10 19 20 21 20 19 18 12 12 11 11 11 11 10 11 11 11 11 11 11 11 13 11 13 12 12 10 8 8 7 7 7 6 5 5 4 3 1 1 4 4 5 4 2 5 4 5 4 3 3 3 4 4 6 7
23 19 18 18 18 18 18 18 17 18 18 18 17 18 15 14 15 14 12 14 15 12 13 12 13 13 14 13 13 18 10 23 22 22 21 19 19 11 11 13 12 12 11 11 11 11 11 11 11 11 11 13 12 15 13 12 11 10 10 8 8 7 7 5 3 6 5 2 2 5 6 7 8 7 5 2 5 4 3 3 4 5 6 6 6
20 18 18 18 19 19 18 18 17 17 19 20 19 18 18 19 14 13 13 13 14 15 13 14 13 14 14 13 15 15 11 19 21 21 21 19 15 11 11 12 11 12 12 11 11 11 11 12 12 10 11 12 12 15 14 13 11 11 10 10 8 7 8 5 7 8 9 9 9 9 8 8 9 9 9 9 6 2 3 4 5 5 5 6 6
19 18 18 19 19 19 18 18 18 18 19 22 22 19 14 10 10 13 16 17 15 12 12 11 13 13 14 16 17 17 10 16 21 21 22 20 17 12 10 12 13 12 12 11 10 10 12 14 13 11 11 10 16 15 15 12 11 11 11 10 9 8 8 8 6 5 6 6 6 6 6 6 6 6 7 5 3 2 4 5 5 4 6 6 6
19 19 19 18 18 18 18 18 18 20 21 21 18 16 14 16 15 12 13 14 11 10 12 15 13 12 12 13 13 17 10 15 20 22 23 22 17 10 10 13 13 12 12 11 10 10 10 10 11 11 10 12 19 16 15 12 9 10 10 10 9 10 9 9 9 9 8 7 5 4 3 4 3 4 5 6 4 3 5 7 6 6 6 6 6
19 19 18 18 17 17 17 18 18 19 20 16 13 14 13 14 14 13 12 13 12 14 13 14 13 10 10 12 9 16 11 13 17 23 23 23 21 13 10 14 14 13 12 10 10 10 10 10 11 4 12 19 17 17 14 11 7 8 9 9 9 9 8 9 9 8 9 10 8 8 8 7 7 7 7 7 6 7 8 8 8 7 7 7 6
19 18 18 17 18 19 17 18 18 16 15 12 12 14 15 15 13 12 13 13 11 11 12 12 12 11 10 12 12 16 9 12 15 22 22 23 21 16 11 12 13 12 11 10 10 10 10 10 9 12 17 18 18 18 15 11 5 4 7 8 6 5 8 8 10 9 8 9 9 9 8 8 8 8 9 9 9 8 9 9 9 8 8 7 7
19 19 19 18 17 17 16 16 15 13 13 14 14 15 15 14 12 11 9 9 10 11 11 11 10 8 7 10 14 16 12 17 13 19 23 23 22 19 12 11 10 10 11 10 10 10 10 10 8 12 17 16 16 15 14 14 13 8 3 6 8 4 6 7 8 9 8 8 9 9 9 9 9 9 9 9 9 9 9 10 10 10 9 8 8
19 19 18 17 15 15 14 14 13 14 14 15 17 17 13 13 12 11 12 11 11 12 14 12 11 10 11 12 10 12 9 12 19 16 22 24 25 21 16 13 12 8 9 10 10 9 9 8 9 17 17 16 13 12 12 15 12 9 6 3 8 5 2 7 7 8 8 8 9 9 9 9 9 9 9 8 8 9 9 9 9 9 9 9 9
18 18 15 15 15 14 13 13 10 13 15 14 13 13 12 12 11 10 11 10 11 13 13 12 10 10 12 13 11 9 7 8 14 21 19 23 22 21 15 12 12 9 8 7 7 8 9 8 11 18 18 19 20 18 17 15 10 13 8 4 6 5 6 8 7 7 8 9 9 9 9 9 8 8 8 8 7 8 8 8 8 9 8 8 9
17 15 14 13 12 12 13 11 11 11 12 14 12 12 13 13 12 12 14 15 15 14 13 12 10 11 12 11 11 10 7 8 8 12 20 20 22 22 18 10 8 11 8 7 7 4 10 16 19 19 18 16 17 16 13 14 14 11 10 7 5 6 7 7 8 8 8 9 9 9 9 9 8 7 7 6 6 6 6 6 6 7 7 8 8
15 16 15 14 16 16 15 14 15 14 13 13 11 13 14 14 14 13 11 11 11 11 10 8 7 7 9 11 11 10 8 8 8 9 11 16 17 19 15 8 6 9 8 9 15 18 19 18 17 15 14 13 12 8 6 8 10 6 9 8 6 7 8 8 8 9 9 9 9 9 8 8 8 7 7 6 6 7 6 6 6 7 7 8 8
15 14 15 16 16 14 15 13 13 13 14 12 12 10 9 10 11 9 7 7 5 6 9 9 9 9 9 7 8 10 9 9 9 9 7 10 9 10 7 5 7 9 10 10 11 10 12 11 10 12 9 14 12 10 9 9 9 5 5 6 7 8 9 9 9 9 9 9 9 8 8 7 7 7 8 8 8 7 6 7 7 8 8 8 8
4 7 11 11 12 13 12 10 12 12 11 10 9 8 6 6 7 7 7 6 5 7 7 9 9 12 11 10 10 9 9 8 9 11 10 11 11 12 9 7 8 8 9 9 9 10 9 8 9 7 7 7 8 8 9 8 9 9 8 8 8 10 10 10 9 9 9 8 8 8 8 7 8 8 8 7 7 6 7 8 8 8 8 8 8
8 8 5 3 5 6 7 10 11 9 8 6 5 6 6 7 5 4 3 5 6 6 6 7 9 11 10 12 12 12 10 10 13 15 17 20 18 13 12 12 10 10 12 13 10 7 8 9 9 10 9 9 9 9 10 9 9 9 10 10 10 10 10 9 10 10 9 9 9 8 8 8 8 8 7 6 6 7 8 8 8 8 8 8 8
6 1 3 5 6 5 6 8 8 7 7 6 7 4 7 10 4 5 7 9 11 13 11 10 11 12 13 12 13 13 13 14 14 18 16 17 17 21 19 17 15 11 11 17 13 10 10 10 11 11 10 10 10 9 10 10 10 10 11 12 11 10 11 11 10 10 9 9 9 9 8 8 8 7 7 7 7 8 8 8 8 8 8 8 8
6 5 7 6 7 4 2 4 4 4 5 6 7 7 7 5 10 11 10 6 9 13 12 6 4 8 9 8 5 7 7 11 20 20 20 21 20 17 19 21 20 17 17 14 11 8 7 8 8 11 10 10 10 10 10 10 8 8 11 11 11 10 9 11 11 7 7 7 8 8 8 8 7 7 7 7 8 7 7 8 8 8 8 8 8
8 8 6 5 6 6 5 6 4 1 3 2 3 6 7 6 3 8 11 10 8 8 10 9 8 9 11 11 8 3 7 14 19 21 22 23 22 21 19 18 19 20 19 17 10 7 7 8 8 11 11 11 11 11 12 12 12 11 10 8 9 11 11 10 11 11 10 11 7 7 7 8 8 8 8 7 7 7 7 7 7 8 8 8 8
8 8 8 6 3 4 3 3 1 1 2 3 3 3 5 6 6 5 3 10 10 5 1 8 11 11 13 13 14 13 11 13 19 21 22 23 22 21 22 21 21 20 19 12 9 7 9 12 12 12 12 11 13 13 13 12 11 11 11 11 9 11 12 11 11 11 9 10 8 7 7 6 6 8 5 7 7 5 6 6 6 7 7 7 6
7 6 6 5 6 6 4 1 1 2 3 4 4 5 5 5 6 6 5 3 2 5 6 2 6 12 12 15 14 15 16 18 19 22 22 22 21 19 19 15 17 21 21 14 11 9 12 12 12 13 13 12 12 12 12 12 11 12 11 11 11 10 11 12 12 12 10 8 9 6 7 8 9 7 6 6 8 7 5 6 7 5 5 6 6
6 6 4 4 3 3 4 4 4 3 2 3 3 5 4 4 2 4 6 6 6 7 8 4 2 7 8 10 14 17 17 17 19 20 20 20 20 19 16 11 9 7 10 9 12 12 11 11 12 12 12 12 12 12 12 12 12 11 11 10 10 10 11 11 11 11 11 10 10 9 8 8 10 8 7 7 6 6 6 6 8 8 8 8 8
8 7 7 6 5 3 2 2 2 2 3 3 3 3 4 3 5 4 4 4 6 7 4 5 4 1 3 10 12 14 16 17 18 18 18 19 20 22 14 12 13 11 12 13 12 12 11 12 12 11 12 11 11 12 12 12 11 11 10 10 10 10 10 10 10 9 10 11 10 8 10 10 10 7 8 8 11 9 7 8 7 6 7 8 5
10 9 8 8 7 6 5 4 5 6 5 4 3 3 2 2 3 4 4 5 6 5 6 5 5 4 3 3 4 8 12 16 17 18 20 20 23 17 13 13 12 11 12 13 12 12 13 12 12 12 12 12 11 11 11 10 10 11 11 11 10 10 9 10 10 9 8 8 8 11 11 8 9 9 7 7 7 7 8 8 7 6 5 5 6
10 10 9 9 8 8 7 6 6 6 4 3 3 1 2 1 2 3 4 5 6 7 6 6 6 7 8 6 5 6 7 10 13 12 14 16 15 13 11 11 12 13 13 12 12 12 12 13 12 12 11 11 11 10 10 9 8 9 10 10 10 10 7 7 9 11 9 8 7 7 7 8 8 7 7 7 7 7 7 6 7 6 5 5 5
7 9 13 14 7 8 7 7 6 5 4 3 2 1 1 1 2 3 3 3 4 5 4 5 5 6 6 6 6 9 12 9 8 7 7 9 12 10 10 11 11 9 9 9 9 10 10 11 11 10 10 9 10 9 9 7 7 7 8 8 9 8 6 5 6 6 5 5 7 7 8 8 7 8 7 8 7 7 6 6 5 6 7 6 6
10 9 8 11 9 8 7 7 6 5 5 4 3 2 2 1 1 2 3 3 4 3 3 4 4 4 5 7 7 8 8 8 8 9 9 10 10 10 9 9 10 8 9 9 9 10 9 9 9 9 9 9 8 8 7 6 6 6 6 5 5 6 4 4 5 5 7 7 8 8 7 7 7 7 7 8 7 6 6 7 6 6 6 7 6
9 9 7 6 7 7 8 7 7 7 6 5 4 2 2 2 3 2 3 2 3 3 2 2 2 4 5 7 8 5 4 6 7 7 7 9 9 9 9 5 4 5 3 4 3 6 6 5 5 5 6 7 7 7 7 6 7 6 7 6 5 6 5 7 6 6 6 5 6 7 7 7 7 7 7 7 7 7 6 6 7 6 5 5 6
10 9 9 9 9 9 8 8 8 7 6 6 6 5 4 3 4 4 5 5 3 4 4 5 6 6 6 9 6 3 4 5 5 7 8 8 8 7 4 2 2 4 4 6 5 4 5 7 7 5 4 5 6 6 7 9 9 9 7 6 5 4 5 4 4 4 4 7 7 6 6 6 6 6 6 7 6 6 7 6 6 5 5 6 6
11 9 10 10 10 9 9 9 8 8 7 7 7 7 6 5 5 4 6 6 5 4 5 6 6 7 7 8 2 5 1 4 5 6 6 6 7 6 6 3 1 2 4 4 2 3 5 5 5 2 0 2 2 3 4 5 6 5 4 2 1 0 0 1 5 4 5 6 7 6 5 4 5 5 6 6 6 6 6 5 4 4 4 5 5
11 11 10 10 10 8 7 8 8 7 5 4 6 7 7 7 6 6 6 6 6 4 5 5 4 5 6 5 2 2 1 2 3 4 6 5 5 5 5 4 3 3 4 4 2 2 2 3 2 1 1 2 3 6 8 8 8 6 2 3 3 4 4 5 6 6 7 8 7 6 6 6 6 6 6 6 6 6 6 5 4 4 4 5 6
11 11 11 10 10 9 9 8 7 7 7 6 8 8 8 9 8 7 7 7 7 7 5 5 5 5 4 4 2 0 2 2 3 5 4 4 5 4 3 3 2 1 2 2 2 1 2 2 2 3 3 6 6 2 3 4 2 2 4 4 4 4 4 5 5 5 5 5 6 6 6 6 7 7 7 6 6 5 5 4 4 5 5 6 7
10 10 10 10 11 11 10 9 7 8 9 8 7 8 7 8 8 7 6 6 5 5 5 5 5 5 4 4 2 1 2 3 4 4 3 3 3 3 3 4 4 4 3 2 2 2 1 1 1 1 0 4 2 5 6 6 5 5 6 6 7 8 7 8 9 5 5 5 5 4 4 4 5 6 6 5 5 5 4 4 5 6 7 6 6
11 10 10 10 10 10 11 11 11 10 9 9 8 8 8 7 6 5 4 5 6 6 5 4 4 4 3 4 3 3 2 2 2 2 2 2 2 2 3 5 5 5 5 5 5 4 3 3 2 2 3 4 4 5 6 7 6 7 8 8 7 8 9 6 5 7 7 7 4 4 4 4 4 4 4 4 4 4 5 5 6 6 6 7 7
10 10 10 10 10 10 10 10 12 12 12 11 11 11 9 8 8 8 7 6 5 4 4 4 4 4 5 4 4 4 3 3 3 3 2 0 1 0 1 3 3 3 4 4 4 3 3 3 4 5 5 5 3 4 5 5 5 4 6 7 5 4 10 9 9 9 8 7 5 5 3 3 3 4 4 4 5 5 5 5 5 5 5 6 7
10 10 10 10 10 10 10 11 11 10 10 10 11 11 11 11 11 10 8 7 8 7 7 5 3 2 3 3 3 3 3 3 3 1 1 3 4 5 6 6 4 3 2 2 2 3 3 4 3 2 1 0 2 3 3 3 2 2 1 4 7 11 8 6 5 7 7 6 4 7 6 5 4 4 4 4 6 6 5 4 4 5 5 6 7
8 9 10 10 10 10 9 9 10 10 10 9 9 9 9 10 10 9 10 10 10 9 7 7 6 6 5 4 3 2 2 2 2 2 2 1 1 2 3 2 2 3 2 2 2 0 1 2 2 2 2 3 3 3 3 4 5 4 4 5 8 10 9 10 10 7 9 4 6 4 5 4 4 4 4 4 4 5 6 6 5 4 6 6 6
10 9 9 10 10 10 10 10 10 10 10 9 9 10 10 10 9 9 9 9 10 9 10 10 10 9 9 8 7 6 7 6 6 5 4 3 2 2 2 2 1 1 1 1 1 1 2 2 2 3 4 3 4 3 4 5 6 5 4 6 9 10 10 8 6 5 8 6 4 3 3 4 4 4 4 4 4 5 7 8 6 6 6 7 6
Wind_Direction
186 190 195 204 208 207 202 204 202 201 201 200 202 203 202 200 199 197 193 198 197 191 192 191 196 196 191 192 195 193 203 201 202 203 202 203 202 203 206 203 206 211 214 202 205 216 218 217 213 213 216 216 207 212 225 227 215 220 226 224 222 214 218 223 229 217 144 157 178 166 147 174 199 207 214 195 156 194 221 238 200 207 236 273 193
189 190 196 201 207 208 202 198 201 202 199 200 200 198 195 200 199 197 199 199 200 195 193 191 194 196 194 190 195 196 203 202 202 203 200 201 205 202 209 206 209 217 216 217 198 207 216 219 215 208 211 226 219 220 204 209 208 207 213 221 212 214 203 220 219 227 167 167 173 163 143 201 238 207 225 202 199 202 211 223 203 217 237 229 281
193 190 194 200 205 206 198 200 200 199 202 201 203 202 190 196 198 200 200 197 199 199 191 193 198 199 197 193 195 200 201 204 200 199 204 202 205 198 204 211 207 216 217 219 221 211 221 229 230 225 223 215 208 212 206 205 207 207 209 209 216 211 205 209 223 228 183 177 176 182 179 200 229 224 193 199 210 225 248 249 229 240 266 232 252
192 191 192 198 200 200 198 200 201 200 202 200 202 205 191 193 200 201 199 197 199 200 193 194 197 200 197 193 196 196 193 193 194 202 206 203 206 206 202 211 208 214 221 219 223 223 217 217 218 219 205 200 204 204 209 202 209 211 209 206 206 213 215 191 222 242 195 174 182 204 192 179 209 244 187 168 186 211 239 240 271 268 242 232 219
190 192 192 192 192 195 197 198 203 203 204 201 203 201 194 194 197 200 198 200 200 197 199 198 198 200 196 193 193 195 193 196 196 197 202 203 205 207 203 213 215 216 220 223 220 223 216 214 208 201 186 197 197 200 203 198 202 209 208 203 197 204 201 201 208 224 191 189 187 213 198 170 210 224 204 205 197 215 224 226 244 241 262 264 287
189 190 190 190 190 193 198 202 205 206 205 204 200 194 193 198 199 201 202 201 197 199 202 201 203 202 197 193 192 194 194 198 201 199 204 205 208 204 196 209 214 214 218 221 218 217 210 208 206 197 190 197 196 198 198 195 200 206 204 198 200 191 194 191 206 190 198 210 201 185 173 189 203 212 211 215 260 244 234 200 195 215 219 244 236
188 189 188 189 189 191 196 200 202 204 203 202 197 194 197 201 202 202 202 202 200 200 205 204 201 203 199 192 194 199 200 200 198 198 204 205 204 205 203 208 213 213 216 215 216 210 208 207 204 197 196 198 196 195 196 191 196 203 196 200 206 177 185 189 188 190 205 213 198 180 184 204 206 197 217 210 200 236 256 263 252 252 210 218 247
187 187 188 187 190 191 195 197 200 201 201 202 197 193 195 199 203 204 202 205 203 201 203 204 201 203 202 194 194 196 201 198 199 198 202 205 200 206 210 207 212 214 217 214 208 206 204 207 205 199 199 198 198 193 192 186 193 194 193 195 191 169 180 183 194 197 198 211 191 190 199 189 197 220 200 178 222 218 224 248 262 278 281 261 258
190 188 190 190 190 189 190 194 199 200 200 201 200 194 192 199 205 203 200 209 207 202 204 204 201 202 205 198 193 195 201 201 198 193 197 200 193 206 212 210 212 216 213 208 206 202 203 205 206 200 198 196 192 190 184 189 189 190 187 186 176 174 181 191 197 198 199 202 194 200 195 195 195 197 199 191 212 238 187 196 241 266 266 263 269
191 188 187 188 186 187 188 187 193 196 197 199 200 196 193 191 201 203 200 208 208 198 202 207 204 200 206 203 198 193 199 200 187 184 190 197 197 205 204 205 212 212 208 203 202 201 202 203 202 197 175 146 133 128 138 118 21 223 182 181 176 180 190 195 195 200 199 194 204 198 199 198 202 196 205 207 213 215 175 207 248 250 247 269 261
196 189 188 185 186 186 184 186 191 193 195 197 192 194 196 188 196 205 204 207 208 196 201 206 207 204 206 207 201 197 192 189 170 170 175 190 198 198 198 205 212 211 204 200 198 197 200 200 190 121 123 123 123 124 114 107 84 63 73 63 50 180 196 193 198 202 199 201 204 201 205 207 206 198 202 201 201 211 219 232 242 261 270 277 293
208 192 189 188 187 186 183 184 187 189 191 194 191 196 195 185 194 200 202 205 207 193 200 209 206 200 206 208 206 201 196 149 154 154 159 169 196 196 198 208 209 212 203 199 198 196 196 195 186 165 174 169 159 139 122 100 93 83 83 78 74 58 45 63 199 199 206 210 206 202 205 212 204 201 203 202 195 194 222 241 237 259 267 265 276
208 194 191 190 187 183 183 183 184 186 190 194 194 194 195 185 192 195 199 200 204 201 201 210 205 202 204 211 208 203 199 145 154 154 154 163 189 209 199 206 209 211 205 199 198 195 193 191 188 180 183 166 169 177 165 133 90 90 92 110 80 69 59 55 33 18 314 223 218 200 207 209 211 200 203 197 195 216 201 218 226 233 243 268 271
209 194 192 191 186 184 185 183 184 186 191 194 191 193 194 185 191 197 195 194 204 206 200 209 204 201 200 206 207 209 194 154 154 157 157 165 171 185 199 204 212 215 210 204 199 198 193 192 189 183 183 176 185 182 177 169 164 156 170 190 194 147 128 100 316 293 284 299 234 215 195 223 217 205 174 169 183 217 222 241 251 256 258 277 321
217 197 191 189 185 185 184 183 182 185 191 193 191 195 192 184 190 188 194 198 203 198 191 204 205 199 193 197 200 200 183 164 160 163 164 166 170 175 199 206 211 215 214 208 204 200 196 195 194 188 183 179 186 182 175 174 170 173 181 186 196 197 209 219 212 209 228 226 273 235 208 190 215 184 141 162 199 219 247 289 319 312 305 295 272
213 194 190 185 183 182 183 183 183 183 188 190 190 195 190 188 190 191 193 201 201 194 198 203 202 199 194 193 198 205 171 168 164 167 166 167 166 175 197 209 211 213 215 210 204 202 197 196 196 191 186 182 179 173 173 170 171 174 181 185 193 191 197 195 154 62 35 4 27 45 51 52 60 53 58 143 191 201 220 235 250 248 255 259 266
201 194 186 182 183 182 182 181 183 186 187 187 189 189 187 188 184 188 196 197 192 190 197 199 199 201 198 195 198 200 159 175 164 164 164 163 165 179 187 204 210 213 215 209 205 201 198 194 197 194 185 188 163 169 164 166 174 178 180 185 189 191 195 132 96 100 95 84 86 88 85 75 71 71 65 49 44 12 229 243 239 240 256 266 269
197 191 185 182 181 180 179 177 180 185 190 194 195 191 181 181 188 192 198 196 193 187 195 198 202 206 200 201 202 203 164 170 164 162 162 165 170 177 185 198 213 213 216 211 205 201 200 190 195 198 188 183 151 164 161 171 180 179 183 186 186 193 194 166 166 135 113 112 103 100 94 84 86 89 87 88 73 294 225 248 268 278 270 275 286
195 190 186 184 181 179 177 179 183 190 195 197 192 182 177 187 195 195 201 200 189 191 202 204 205 203 200 202 195 203 161 166 169 164 166 169 173 177 181 203 212 213 212 205 204 201 197 180 194 207 200 143 154 155 164 180 186 182 185 187 190 196 197 173 179 181 187 195 184 174 170 158 177 193 171 168 166 205 231 250 267 261 265 270 283
193 190 186 181 181 179 179 182 184 189 194 187 176 176 182 191 193 192 192 197 191 197 194 203 201 197 188 195 185 205 165 160 174 168 168 171 177 173 181 200 209 210 208 200 194 203 198 190 185 166 127 143 151 153 166 192 199 182 189 196 197 197 195 185 184 185 185 196 202 203 214 208 207 215 214 184 196 211 223 235 243 256 264 267 269
194 203 193 183 180 182 182 185 188 186 182 177 173 182 189 195 193 190 194 197 191 196 190 194 195 196 190 190 204 207 174 158 170 170 168 172 181 179 177 193 206 205 198 195 198 198 198 190 189 128 147 149 153 161 164 187 242 218 201 211 203 188 187 195 170 175 188 191 202 204 207 214 213 213 215 209 204 205 214 224 232 241 249 256 263
192 192 192 183 181 182 181 186 183 171 171 175 181 190 195 197 194 187 190 182 188 198 189 186 192 180 184 194 209 210 179 160 160 176 171 175 182 189 179 180 185 191 192 202 196 199 196 188 179 141 146 150 154 158 167 173 203 229 244 96 89 113 181 198 170 182 199 191 201 207 209 212 212 213 213 215 212 205 207 213 220 231 238 244 253
193 191 187 183 180 181 180 183 179 180 178 186 189 192 191 193 188 181 184 185 193 199 197 186 191 189 192 202 205 206 168 161 161 171 178 178 184 191 187 175 182 179 194 202 198 194 193 179 117 137 144 150 149 160 170 191 194 205 118 156 96 90 170 205 186 184 203 207 205 208 211 215 217 215 212 217 216 211 207 211 214 216 226 238 246
191 188 181 178 177 173 175 175 168 182 185 184 187 185 185 186 180 177 180 186 195 202 202 194 185 194 191 200 199 188 145 157 168 170 176 185 185 189 190 167 162 188 193 201 190 189 182 140 141 142 143 148 160 175 187 196 199 201 129 142 148 184 199 212 216 202 201 213 213 216 215 217 220 220 219 219 222 212 211 214 216 218 225 231 232
181 174 164 169 164 164 169 170 174 180 184 183 180 184 185 188 190 190 188 194 202 205 202 190 184 196 197 193 195 185 141 144 149 174 175 182 190 191 193 174 191 187 186 187 176 165 115 131 147 152 157 161 165 172 183 195 203 198 158 153 187 200 208 217 220 216 213 212 214 216 222 222 220 222 226 231 226 224 217 210 215 224 233 240 248
175 171 168 167 173 175 177 179 185 188 187 190 189 194 194 193 200 199 197 197 197 198 187 166 173 185 198 198 193 186 160 144 154 165 179 187 194 197 182 176 163 166 131 99 97 108 127 141 148 152 157 162 163 166 175 182 202 192 160 169 203 216 214 215 222 221 221 219 218 219 217 217 219 219 225 234 237 231 217 220 219 220 225 237 243
169 173 169 171 172 175 173 178 180 185 192 190 193 195 197 197 199 199 190 185 171 164 157 162 185 197 203 191 186 189 184 165 161 167 162 176 186 185 165 159 142 119 107 126 121 117 130 147 162 169 170 168 167 164 171 156 173 172 179 195 215 222 222 220 218 221 225 226 222 222 223 223 219 216 220 219 224 228 220 220 230 239 241 238 237
311 174 166 164 168 175 172 156 172 181 182 181 186 183 165 159 184 184 193 183 161 171 156 160 184 195 192 189 186 195 183 172 171 172 175 172 177 176 171 165 163 166 152 154 166 154 144 131 134 152 149 159 179 183 191 181 184 184 194 197 210 222 228 232 233 231 229 227 229 223 222 219 224 224 218 215 215 215 220 231 236 241 239 240 242
183 234 152 219 173 172 162 165 177 167 157 151 135 153 158 169 142 123 171 183 160 141 151 165 191 196 197 198 198 204 198 188 198 186 178 178 170 168 167 174 176 176 174 149 139 145 136 154 166 167 167 173 186 191 191 189 187 188 198 205 208 211 215 217 218 221 225 223 226 228 222 220 222 218 218 216 213 219 222 223 225 234 237 239 244
142 141 150 170 151 158 148 159 165 150 154 163 162 131 65 58 50 189 188 192 185 187 176 188 196 212 220 214 200 193 197 208 162 144 159 180 187 180 176 166 165 165 142 146 163 164 170 172 178 177 177 179 187 193 189 193 194 194 196 203 208 209 210 212 217 217 217 223 225 223 225 228 223 214 216 223 227 230 230 228 231 225 229 235 241
34 66 63 40 17 23 126 149 158 165 172 165 174 166 172 119 62 52 31 344 212 211 218 206 190 207 222 217 96 131 174 129 143 162 165 172 175 182 174 168 165 158 158 161 190 177 172 179 176 181 184 185 185 191 192 196 198 200 199 194 205 209 207 212 211 214 214 215 224 226 220 221 225 221 226 226 230 231 228 216 222 235 235 235 240
26 33 48 55 38 36 21 19 18 183 206 194 163 175 180 170 173 38 39 25 343 207 180 163 137 125 121 129 147 122 117 144 154 161 169 171 174 174 175 170 166 163 170 167 178 176 172 182 183 187 186 192 188 191 197 202 198 200 194 190 199 208 207 212 209 212 212 213 212 218 223 218 220 225 229 231 231 234 234 228 219 220 226 235 242
40 27 14 23 65 75 45 29 345 263 226 203 192 183 189 185 186 200 49 38 47 35 97 135 140 145 143 153 155 160 163 161 162 166 170 174 174 175 172 169 166 165 156 169 187 177 181 191 191 192 190 196 194 195 199 202 196 195 197 200 200 203 210 210 206 214 215 212 205 207 213 222 228 229 225 228 229 235 239 243 242 238 229 228 237
54 37 29 3 6 15 29 51 302 284 263 239 231 214 214 212 211 186 174 170 61 49 39 30 177 157 161 163 165 163 164 164 168 172 173 172 170 164 162 168 168 165 168 178 179 186 191 197 194 195 195 195 199 192 194 198 197 198 202 205 204 202 206 208 208 211 216 205 199 205 205 215 214 219 224 224 224 227 230 234 238 245 248 250 252
54 100 92 10 8 17 21 10 355 328 299 260 250 238 228 221 155 154 175 188 186 192 201 206 228 201 171 166 166 160 161 165 169 173 169 164 159 151 135 126 143 186 188 191 187 194 198 202 200 196 198 195 198 194 194 197 200 200 200 200 203 204 203 204 211 210 207 206 209 214 211 213 216 214 215 220 223 226 227 230 232 233 236 238 244
22 16 22 27 25 36 18 357 333 298 292 267 279 281 274 167 138 179 161 150 186 194 192 197 172 35 168 174 164 158 160 164 169 166 160 155 155 148 155 172 172 175 183 187 193 196 200 205 206 200 200 202 197 200 198 196 198 197 198 201 204 205 204 204 204 210 210 215 218 218 214 213 215 213 217 219 220 222 226 227 230 231 239 245 244
19 14 14 9 1 4 7 358 20 18 16 350 327 303 325 105 212 201 186 180 191 191 198 153 132 129 103 103 122 148 157 161 161 158 157 159 161 165 177 173 175 169 182 191 195 200 205 207 206 206 202 202 201 200 199 195 193 200 204 207 204 208 215 215 218 209 215 226 221 213 214 216 214 214 214 219 222 225 227 228 227 225 227 235 236
42 27 15 358 358 1 9 8 13 346 344 328 320 337 115 192 211 211 201 195 189 192 179 181 174 170 171 159 144 137 112 108 116 135 151 156 163 179 180 180 177 180 186 191 197 201 205 209 207 207 205 202 203 198 196 191 188 200 207 208 214 221 208 201 214 225 217 200 213 218 212 215 216 213 210 220 226 227 226 225 231 229 221 207 212
45 57 24 349 12 20 11 8 9 1 3 338 352 32 46 164 177 182 191 173 172 187 196 187 185 188 169 138 132 124 119 131 150 159 158 171 177 182 179 180 191 194 195 195 196 199 209 209 208 207 205 205 205 199 194 191 196 204 208 211 211 224 216 217 217 219 222 216 216 219 218 213 211 215 216 219 218 224 226 225 223 228 234 218 213
26 25 33 12 12 33 22 15 10 7 10 351 21 44 78 93 147 169 180 176 175 169 190 179 179 176 137 145 145 154 160 152 150 150 161 171 177 184 193 188 188 194 196 199 198 198 205 207 204 200 202 205 202 195 193 188 199 210 211 210 215 219 200 218 225 231 222 217 219 218 217 216 216 214 215 219 223 216 218 223 227 226 225 231 235
17 27 32 40 359 13 34 23 26 9 7 13 11 30 68 89 91 77 75 89 114 105 132 151 147 123 140 145 149 162 150 135 136 150 162 170 178 187 194 188 176 188 177 170 143 179 192 224 222 208 195 197 190 191 197 197 209 218 221 217 215 216 186 202 209 222 223 213 216 216 216 217 218 216 216 219 217 225 224 221 223 227 220 216 225
22 20 20 26 27 21 22 29 25 25 28 29 28 29 41 54 62 75 86 81 79 93 91 64 59 75 83 108 136 114 124 135 145 154 156 166 173 182 190 249 236 175 144 160 174 178 179 203 221 222 194 189 200 201 201 206 212 216 216 213 207 219 225 206 201 196 192 218 218 216 220 218 215 218 220 225 223 221 226 225 226 219 219 219 222
19 23 23 23 32 32 17 21 26 25 20 23 33 37 39 51 67 71 79 83 70 77 84 90 100 105 118 133 164 324 43 132 150 151 145 148 159 164 178 180 17 82 125 124 148 204 205 189 184 112 185 240 210 209 209 223 227 224 213 146 126 146 345 250 233 191 195 210 216 207 206 215 217 221 222 221 224 229 227 222 221 224 220 219 227
25 14 22 26 21 34 30 24 27 30 40 46 52 42 44 48 49 65 70 78 85 80 67 89 102 106 100 123 129 354 100 144 144 141 141 143 141 155 173 177 150 120 125 120 99 77 95 89 80 114 249 265 238 246 236 227 233 231 164 125 154 177 212 219 227 216 206 206 208 203 199 207 214 221 221 221 222 221 228 225 222 220 230 232 229
29 23 20 25 20 19 17 14 8 21 18 34 42 50 50 50 49 40 33 42 44 51 51 59 65 67 76 90 99 210 311 63 68 69 90 116 126 134 144 155 145 100 62 51 48 49 80 115 184 228 223 234 205 234 340 322 297 107 122 173 183 194 217 211 203 199 187 194 200 206 208 206 208 215 222 220 217 219 221 213 212 216 221 232 236
30 28 25 26 22 16 9 13 11 30 33 31 38 46 52 55 56 49 44 44 51 65 65 70 86 97 104 122 140 65 47 42 64 67 85 100 109 128 137 151 165 163 167 165 176 212 146 109 181 263 21 295 183 166 216 225 211 192 211 221 214 218 212 203 204 210 188 181 198 203 206 206 208 215 217 225 218 206 207 205 218 223 230 228 230
23 28 22 27 27 26 20 15 14 17 36 32 34 36 48 55 61 73 67 66 65 71 74 74 80 96 112 113 111 102 67 38 73 105 81 91 122 149 155 164 165 168 170 173 182 179 193 222 233 271 244 245 248 215 212 214 209 198 205 213 213 207 210 174 154 213 200 179 181 203 210 213 202 209 201 211 215 203 203 214 220 225 226 228 228
23 24 24 22 26 25 22 19 21 18 22 21 18 20 23 31 46 43 33 37 46 59 76 88 87 85 83 73 68 59 57 35 32 19 46 140 245 156 159 149 152 152 166 156 158 171 200 200 209 221 237 229 226 236 242 249 240 213 210 213 210 130 111 138 206 203 204 186 172 195 212 209 174 177 188 189 205 223 224 212 207 217 223 225 229
28 26 28 27 29 25 25 21 21 22 19 19 19 18 17 21 18 14 19 34 33 30 31 36 66 100 121 126 136 141 138 150 142 143 50 17 20 28 24 26 30 66 84 112 148 167 197 209 209 233 278 240 219 237 264 285 274 252 101 88 121 135 159 191 213 199 166 150 173 189 202 187 185 182 182 183 192 205 229 245 220 209 217 224 225
40 35 36 29 31 29 29 32 29 28 18 17 20 20 11 13 15 16 14 14 16 12 10 19 24 21 40 50 65 92 123 135 126 135 133 135 81 54 43 47 37 40 34 33 27 34 261 256 216 202 216 222 233 244 255 247 245 227 194 177 155 162 172 185 212 176 170 189 174 182 179 182 185 194 193 202 191 190 211 228 238 237 230 224 224
35 40 55 56 40 32 30 28 30 27 23 19 20 21 16 11 9 9 5 11 16 11 14 21 17 14 19 22 22 22 25 27 31 31 48 98 109 116 133 134 154 161 210 193 171 192 190 181 214 219 220 223 227 221 226 237 239 225 219 175 178 191 190 184 201 184 179 150 151 153 178 182 192 198 209 213 209 192 203 213 221 231 236 232 228